When you browse on this site, cookies collect data to enhance your experience and personalize the content and advertising you see.
Visit our Privacy Policy to learn more. By continuing to use the site, you agree to this use of cookies and data.
  • en France
  • Liste des pays
  • À 7 jours
  • Température de l'eau
  • Carte satellitaire
  • Carte météo
  • Widgets météo
  • user-avatar
    Se connecter

    Météo par heure à Kandahâr

    Ce jour, 23 Juillet, Mardi

    Heure Température Précipitation Vent Pression Humidité
    00:00 +31°C° 0 mm 2 m/s 668 mmHg 37%
    01:00 +29°C° 0 mm 2 m/s 668 mmHg 45%
    02:00 +29°C° 0 mm 2 m/s 668 mmHg 46%
    03:00 +29°C° 0 mm 1 m/s 668 mmHg 47%
    04:00 +28°C° 0 mm 1 m/s 668 mmHg 48%
    05:00 +30°C° 0 mm 2 m/s 669 mmHg 44%
    06:00 +31°C° 0 mm 2 m/s 670 mmHg 40%
    07:00 +34°C° 0 mm 2 m/s 671 mmHg 35%
    08:00 +36°C° 0 mm 2 m/s 671 mmHg 31%
    09:00 +38°C° 0 mm 2 m/s 671 mmHg 28%
    10:00 +39°C° 0 mm 2 m/s 671 mmHg 24%
    11:00 +41°C° 0 mm 2 m/s 671 mmHg 20%
    12:00 +42°C° 0 mm 2 m/s 670 mmHg 17%
    13:00 +45°C° 0 mm 2 m/s 670 mmHg 13%
    14:00 +45°C° 0 mm 2 m/s 670 mmHg 12%
    15:00 +46°C° 0 mm 3 m/s 669 mmHg 11%
    16:00 +47°C° 0 mm 4 m/s 669 mmHg 10%
    17:00 +44°C° 0 mm 4 m/s 668 mmHg 12%
    18:00 +42°C° 0 mm 4 m/s 668 mmHg 13%
    19:00 +40°C° 0 mm 4 m/s 668 mmHg 15%
    20:00 +38°C° 0 mm 3 m/s 668 mmHg 16%
    21:00 +37°C° 0 mm 3 m/s 668 mmHg 17%
    22:00 +35°C° 0 mm 2 m/s 668 mmHg 19%
    23:00 +34°C° 0 mm 2 m/s 668 mmHg 20%

    Demain, 24 Juillet, Mercredi

    Heure Température Précipitation Vent Pression Humidité
    00:00 +32°C° 0 mm 2 m/s 667 mmHg 22%
    01:00 +31°C° 0 mm 2 m/s 667 mmHg 24%
    02:00 +30°C° 0 mm 2 m/s 667 mmHg 27%
    03:00 +29°C° 0 mm 1 m/s 667 mmHg 30%
    04:00 +28°C° 0 mm 1 m/s 667 mmHg 32%
    05:00 +30°C° 0 mm 1 m/s 667 mmHg 30%
    06:00 +31°C° 0 mm 2 m/s 668 mmHg 27%
    07:00 +34°C° 0 mm 2 m/s 669 mmHg 25%
    08:00 +36°C° 0 mm 2 m/s 669 mmHg 21%
    09:00 +38°C° 0 mm 2 m/s 669 mmHg 17%
    10:00 +40°C° 0 mm 2 m/s 669 mmHg 12%
    11:00 +43°C° 0 mm 3 m/s 669 mmHg 10%
    12:00 +46°C° 0 mm 5 m/s 669 mmHg 8%
    13:00 +48°C° 0 mm 6 m/s 669 mmHg 7%
    14:00 +48°C° 0 mm 6 m/s 669 mmHg 6%
    15:00 +49°C° 0 mm 7 m/s 668 mmHg 6%
    16:00 +49°C° 0 mm 7 m/s 668 mmHg 5%
    17:00 +46°C° 0 mm 7 m/s 668 mmHg 5%
    18:00 +42°C° 0 mm 6 m/s 667 mmHg 6%
    19:00 +40°C° 0 mm 6 m/s 667 mmHg 6%
    20:00 +37°C° 0 mm 5 m/s 667 mmHg 7%
    21:00 +35°C° 0 mm 3 m/s 667 mmHg 7%
    22:00 +32°C° 0 mm 2 m/s 667 mmHg 8%
    23:00 +31°C° 0 mm 2 m/s 666 mmHg 9%

    Après-demain, 25 Juillet, Jeudi

    Heure Température Précipitation Vent Pression Humidité
    00:00 +30°C° 0 mm 1 m/s 666 mmHg 10%
    01:00 +28°C° 0 mm 1 m/s 666 mmHg 11%
    02:00 +28°C° 0 mm 1 m/s 666 mmHg 11%
    03:00 +27°C° 0 mm 1 m/s 666 mmHg 12%
    04:00 +26°C° 0 mm 1 m/s 666 mmHg 12%
    05:00 +29°C° 0 mm 1 m/s 667 mmHg 11%
    06:00 +31°C° 0 mm 2 m/s 667 mmHg 9%
    07:00 +35°C° 0 mm 2 m/s 668 mmHg 8%
    08:00 +37°C° 0 mm 2 m/s 669 mmHg 7%
    09:00 +39°C° 0 mm 3 m/s 669 mmHg 7%
    10:00 +40°C° 0 mm 3 m/s 669 mmHg 6%
    11:00 +43°C° 0 mm 3 m/s 669 mmHg 6%
    12:00 +44°C° 0 mm 4 m/s 668 mmHg 5%
    13:00 +47°C° 0 mm 4 m/s 668 mmHg 5%
    14:00 +47°C° 0 mm 5 m/s 668 mmHg 5%
    15:00 +47°C° 0 mm 6 m/s 667 mmHg 5%
    16:00 +47°C° 0 mm 6 m/s 667 mmHg 5%
    17:00 +45°C° 0 mm 6 m/s 666 mmHg 6%
    18:00 +41°C° 0 mm 5 m/s 666 mmHg 7%
    19:00 +39°C° 0 mm 5 m/s 666 mmHg 7%
    20:00 +36°C° 0 mm 4 m/s 665 mmHg 9%
    21:00 +33°C° 0 mm 3 m/s 665 mmHg 10%
    22:00 +30°C° 0 mm 1 m/s 665 mmHg 12%
    23:00 +29°C° 0 mm 1 m/s 665 mmHg 13%

    26 Juillet, Vendredi

    Heure Température Précipitation Vent Pression Humidité
    00:00 +29°C° 0 mm 1 m/s 664 mmHg 14%
    01:00 +28°C° 0 mm 1 m/s 664 mmHg 15%
    02:00 +27°C° 0 mm 1 m/s 664 mmHg 15%
    03:00 +27°C° 0 mm 1 m/s 664 mmHg 16%
    04:00 +26°C° 0 mm 1 m/s 664 mmHg 17%
    05:00 +29°C° 0 mm 1 m/s 665 mmHg 15%
    06:00 +31°C° 0 mm 1 m/s 666 mmHg 13%
    07:00 +35°C° 0 mm 2 m/s 666 mmHg 11%
    08:00 +36°C° 0 mm 2 m/s 667 mmHg 10%
    09:00 +38°C° 0 mm 3 m/s 667 mmHg 10%
    10:00 +40°C° 0 mm 3 m/s 667 mmHg 10%
    11:00 +42°C° 0 mm 3 m/s 667 mmHg 9%
    12:00 +44°C° 0 mm 3 m/s 667 mmHg 8%
    13:00 +45°C° 0 mm 3 m/s 666 mmHg 7%
    14:00 +45°C° 0 mm 3 m/s 666 mmHg 7%
    15:00 +45°C° 0 mm 4 m/s 666 mmHg 6%
    16:00 +47°C° 0 mm 4 m/s 665 mmHg 6%
    17:00 +43°C° 0 mm 3 m/s 665 mmHg 7%
    18:00 +39°C° 0 mm 3 m/s 665 mmHg 9%
    19:00 +37°C° 0 mm 2 m/s 664 mmHg 10%
    20:00 +35°C° 0 mm 2 m/s 665 mmHg 11%
    21:00 +34°C° 0 mm 2 m/s 665 mmHg 12%
    22:00 +31°C° 0 mm 1 m/s 665 mmHg 13%
    23:00 +30°C° 0 mm 1 m/s 665 mmHg 16%

    27 Juillet, Samedi

    Heure Température Précipitation Vent Pression Humidité
    00:00 +30°C° 0 mm 1 m/s 665 mmHg 19%
    01:00 +29°C° 0 mm 2 m/s 665 mmHg 22%
    02:00 +29°C° 0 mm 2 m/s 665 mmHg 24%
    03:00 +29°C° 0 mm 3 m/s 665 mmHg 27%
    04:00 +29°C° 0 mm 3 m/s 666 mmHg 30%
    05:00 +31°C° 0 mm 3 m/s 666 mmHg 29%
    06:00 +33°C° 0 mm 3 m/s 667 mmHg 27%
    07:00 +35°C° 0 mm 4 m/s 668 mmHg 26%
    08:00 +37°C° 0 mm 3 m/s 668 mmHg 24%
    09:00 +39°C° 0 mm 2 m/s 668 mmHg 22%
    10:00 +40°C° 0 mm 1 m/s 668 mmHg 19%
    11:00 +42°C° 0 mm 1 m/s 668 mmHg 16%
    12:00 +43°C° 0 mm 2 m/s 668 mmHg 13%
    13:00 +45°C° 0 mm 2 m/s 667 mmHg 10%
    14:00 +45°C° 0 mm 2 m/s 667 mmHg 10%
    15:00 +45°C° 0 mm 3 m/s 667 mmHg 10%
    16:00 +45°C° 0 mm 4 m/s 666 mmHg 9%
    17:00 +43°C° 0 mm 3 m/s 666 mmHg 11%
    18:00 +40°C° 0 mm 3 m/s 665 mmHg 13%
    19:00 +38°C° 0 mm 3 m/s 665 mmHg 15%
    20:00 +37°C° 0 mm 3 m/s 665 mmHg 16%
    21:00 +36°C° 0 mm 3 m/s 666 mmHg 17%
    22:00 +35°C° 0 mm 3 m/s 666 mmHg 19%
    23:00 +34°C° 0 mm 3 m/s 666 mmHg 20%

    28 Juillet, Dimanche

    Heure Température Précipitation Vent Pression Humidité
    00:00 +32°C° 0 mm 2 m/s 666 mmHg 22%
    01:00 +31°C° 0 mm 1 m/s 666 mmHg 24%
    02:00 +31°C° 0 mm 1 m/s 666 mmHg 28%
    03:00 +30°C° 0 mm 2 m/s 666 mmHg 32%
    04:00 +29°C° 0 mm 2 m/s 666 mmHg 36%
    05:00 +31°C° 0 mm 2 m/s 667 mmHg 35%
    06:00 +32°C° 0 mm 2 m/s 668 mmHg 33%
    07:00 +34°C° 0 mm 2 m/s 668 mmHg 32%
    08:00 +36°C° 0 mm 2 m/s 668 mmHg 29%
    09:00 +38°C° 0 mm 2 m/s 669 mmHg 26%
    10:00 +39°C° 0 mm 2 m/s 669 mmHg 23%
    11:00 +41°C° 0 mm 2 m/s 668 mmHg 20%
    12:00 +42°C° 0 mm 1 m/s 668 mmHg 18%
    13:00 +44°C° 0 mm 1 m/s 668 mmHg 15%
    14:00 +45°C° 0 mm 2 m/s 667 mmHg 14%
    15:00 +45°C° 0 mm 2 m/s 667 mmHg 12%
    16:00 +46°C° 0 mm 2 m/s 667 mmHg 11%
    17:00 +42°C° 0 mm 2 m/s 667 mmHg 13%
    18:00 +40°C° 0 mm 2 m/s 666 mmHg 15%
    19:00 +38°C° 0 mm 2 m/s 666 mmHg 17%
    20:00 +36°C° 0 mm 1 m/s 666 mmHg 18%
    21:00 +34°C° 0 mm 1 m/s 666 mmHg 19%
    22:00 +33°C° 0 mm 1 m/s 666 mmHg 20%
    23:00 +32°C° 0 mm 1 m/s 666 mmHg 22%
    Voir plus